GRBBeta
1 60237U 24128C   26251.49807615  .00002172  00000-0  15690-3 0  9997
2 60237  61.9881 283.8547 0028600 152.9719 207.2871 15.07143852118823
Curium One
1 60242U 24128H   26251.30784953  .00005544  00000-0  31731-3 0  9992
2 60242  61.9771 271.1323 0027521 147.7546 212.5240 15.13553199119039
ROBUSTA-3A
1 60243U 24128J   26251.51914769  .00004647  00000-0  27446-3 0  9997
2 60243  61.9850 273.3273 0029453 145.0099 215.2940 15.12662277119029
CatSat
1 60246U 24125J   26250.86251914  .00110837  00000-0  90241-3 0  9992
2 60246  97.1974 105.0722 0014869 224.1910 135.8167 15.70171737120318
AO-123
1 61781U 24199AY  26251.60536849  .00008297  00000-0  23252-3 0  9998
2 61781  97.2866 119.5305 0013877  16.9645 343.2060 15.36763222146730
LASARsat
1 62391U 24247Q   26250.78573235  .00041112  00000-0  68053-3 0  9999
2 62391  44.9726 156.2803 0008146 156.1950 203.9320 15.51530991 96122
CroCube
1 62394U 24247T   26250.14682354  .00038234  00000-0  57390-3 0  9998
2 62394  44.9695 155.6066 0008636 162.4507 197.6685 15.54266545 96077
JINJUSat 1B
1 63210U 25052A   26250.69022819  .00014294  00000-0  41143-3 0  9994
2 63210  97.3884 147.6472 0004606 124.3920 235.7760 15.35867210 82751
NUSHSAT 1
1 63211U 25052B   26250.97426349  .00021574  00000-0  55967-3 0  9990
2 63211  97.3854 148.8213 0004326 124.0247 236.1410 15.39008343 82860
TEVEL2-4
1 63213U 25052D   26251.43952284  .00020781  00000-0  56939-3 0  9995
2 63213  97.3778 148.0794 0003648 131.3759 228.7800 15.37328209 82895
TEVEL2-5
1 63214U 25052E   26250.68939890  .00015800  00000-0  43727-3 0  9997
2 63214  97.3777 147.2480 0003438 133.7284 226.4246 15.37076678 82770
TEVEL2-6
1 63215U 25052F   26250.70358340  .00016304  00000-0  45155-3 0  9993
2 63215  97.3776 147.2472 0003455 134.8417 225.3109 15.37046455 82776
TEVEL2-1
1 63217U 25052H   26250.69878923  .00015460  00000-0  43715-3 0  9999
2 63217  97.3752 146.7620 0003090 145.5159 214.6286 15.36411197 82751
TEVEL2-3
1 63218U 25052J   26250.68990870  .00015219  00000-0  42937-3 0  9992
2 63218  97.3759 146.7876 0002901 142.5725 217.5722 15.36486645 82755
TEVEL2-2
1 63219U 25052K   26251.15436597  .00019608  00000-0  55296-3 0  9995
2 63219  97.3753 147.2228 0003148 145.3762 214.7688 15.36444019 82820
TEVEL2-9
1 63237U 25052AD  26251.50545205  .00018117  00000-0  54785-3 0  9997
2 63237  97.3816 146.7562 0005332 183.1794 176.9416 15.34255136 82799
TEVEL2-7
1 63238U 25052AE  26251.10740746  .00016386  00000-0  50170-3 0  9991
2 63238  97.3816 146.2352 0005213 185.8408 174.2775 15.33881767 82727
TEVEL2-8
1 63239U 25052AF  26251.18160380  .00017209  00000-0  52686-3 0  9999
2 63239  97.3820 146.2841 0005245 185.3017 174.8172 15.33874605 82733
SPIRONE
1 66657U 25274H   26251.25506919  .00001202  00000-0  11843-3 0  9998
2 66657  97.7475 179.3712 0013582  96.5438 263.7328 14.93823365 42624
K-HERO
1 66660U 25274L   26250.76840775  .00001363  00000-0  13223-3 0  9990
2 66660  97.7482 179.1120 0015443 101.9018 258.3935 14.94219076 42566
SNUGLITE-III DURI
1 66661U 25274M   26251.08970012  .00001541  00000-0  14870-3 0  9992
2 66661  97.7482 179.4496 0016082 102.0809 258.2214 14.94228590 42612
SAKHACUBE-CHOLBON
1 67290U 25313AU  26251.46125512  .00009302  00000-0  36147-3 0  9998
2 67290  97.3873 325.5040 0010309  67.4728 292.7601 15.26225398 38673
RS95S (QMR-KWT-2)
1 67291U 25313AV  26250.70130412  .00012013  00000-0  43861-3 0  9994
2 67291  97.3873 325.1377 0009698  67.8654 292.3615 15.28227801 38588
Ten-Koh2
1 68261U 25241B   26251.47346566  .00005119  00000-0  21674-3 0  9993
2 68261  51.6634 282.9569 0007897  59.3734 300.8022 15.24814607 27612
JACK-002
1 68417U 26067B   26250.85389490  .00005577  00000-0  25994-3 0  9994
2 68417  97.4646 208.5118 0002583  39.4066 320.7357 15.20283538 24500
DISCO 2
1 68431U 26067R   26251.34738914  .00007903  00000-0  36803-3 0  9990
2 68431  97.4679 208.9988 0004114  76.4155 283.7539 15.20177996 24570
HADES-SA (SpinnyONE)
1 68446U 26067AG  26250.82005021  .00017881  00000-0  79328-3 0  9999
2 68446  97.4470 208.0644 0008142 131.8886 228.3046 15.21610760 24487
PARUS-6U1
1 68456U 26067AS  26251.11847791  .00004826  00000-0  23868-3 0  9994
2 68456  97.4635 208.2879 0006997 124.2309 235.9589 15.18269305 24516
SAL-E
1 68458U 26067AU  26250.82907132  .00006024  00000-0  29264-3 0  9997
2 68458  97.4554 207.9044 0007045 132.0305 228.1530 15.18794639 24474
FSI-SAT 2
1 68792U 26088A   26251.34382432  .00003888  00000-0  26042-3 0  9995
2 68792  97.5183  38.6055 0014292 177.1596 182.9716 15.07398260 20814
OrigamiSat 2
1 68795U 26088D   26251.35055783  .00013184  00000-0  80334-3 0  9999
2 68795  97.5167  39.0533 0015306 149.7008 210.5110 15.10401856 20844
ARICA 2
1 68796U 26088E   26251.39722480  .00003378  00000-0  21705-3 0  9990
2 68796  97.5172  38.9770 0016251 148.6428 211.5773 15.08995494 20845
WASEDA-SAT-ZERO-II
1 68797U 26088F   26251.37446247  .00005998  00000-0  37759-3 0  9999
2 68797  97.5160  39.0011 0015922 148.9268 211.2906 15.09446499 20844
MANGARO-II-Piscus
1 68798U 26088G   26250.83507177  .00003745  00000-0  23800-3 0  9990
2 68798  97.5177  38.5133 0019457 154.1908 206.0296 15.09285355 20766
CO-128
1 69912U 26156AV  26251.49889820  .00001034  00000-0  11032-3 0  9999
2 69912  97.7484 150.8259 0001347 324.9320  35.1809 14.90929750  9412
MARINA
1 69920U 26156BD  26251.18085138  .00001530  00000-0  15589-3 0  9996
2 69920  97.7453 150.6036 0006335 316.1945  43.8771 14.92141752  9375
IO-86
1 40931U          26199.45381863  .00000000  00000-0  77536-4 0    07
2 40931   6.0006 322.6653 0012733 338.8432 273.6875 14.79294310    03
LILIUM-4                
1 71922C 26067AC  26089.50133053 -.00014632  00000+0 -74472-3 0    04
2 71922  97.4497  49.1617 0004341   5.9603 355.7042 15.16896692    16
